Weather in Krasnoznamensk

Russia / Kaliningrad Oblast     54°56′31″N   22°29′26″E
temp.,
°C
wind,
m/s
gust,
m/s
humid.,
%
clouds,
%
prec.,
mm/h
press.,
hPa
HPBL,
m
18 april, sun
sun1823:00+8ne368999 0.0 102191
02:00+7ne279460 0.0 1021139
05:00+6ne259673 0.0 1021101
08:00+11ene378222 0.0 1021308
11:00+16ene466440 0.0 1021999
14:00+18ene465413 0.0 10211539
17:00+17ene465875 0.0 10201457
20:00+11ne39775 0.0 1021206
19 april, mon
mon1923:00+9ene39785 0.0 1022174
02:00+7ene36810 0.0 102298
05:00+6ene25875 0.0 102292
08:00+10ene35705 0.0 1023301
11:00+14e46545 0.0 10221175
14:00+13e565267 0.2 10221152
17:00+13e476096 0.0 1022884
20:00+10e387393 0.3 1022279
20 april, tue
tue2023:00+7ene248675 0.0 102169
02:00+6ne238876 0.0 102051
05:00+5ene249466 0.0 102076
08:00+9e357774 0.1 1019368
11:00+12ene355785 0.4 10181454
14:00+12ene2352100 0.6 10161498
17:00+12nne225499 0.1 10151239
20:00+8ene237588 0.3 101461
21 april, wed
wed2123:00+6ene1187100 0.0 101312
02:00+5ene1188100 0.0 101210
05:00+4wnw119233 0.0 101110
08:00+8w237987 0.0 1010307
11:00+12wnw35535 0.1 10091628
14:00+14wnw664246 0.1 10082206
17:00+12wnw56505 0.0 10091200
20:00+7w22775 0.0 101023
22 april, thu
thu2223:00+5s22815 0.0 101014
02:00+5s2681100 0.0 1009127
05:00+6wsw379164 0.3 1010422
08:00+5wnw3592100 0.4 1012557
11:00+9wsw3457100 0.1 10131598
14:00+10wsw4643100 0.1 10132129
17:00+10wsw344519 0.0 10141624
20:00+6wnw2578100 0.3 1016146